INTELSAT 33E DEB, 61996

Orbit data source: Space-Track

INTELSAT 33E DEB, 61996 is space debris in GEO originally from a launch on Wed, 24 Aug 2016 UTC launched from the French Guiana (FRGUI). Debris objects in space refer to the collection of defunct objects orbiting the Earth. Examples of debris include non-operational satellites, rocket bodies, and fragments generated from explosions, collisions, or faulty payload assembly.

Loading next visibility...
Identifier
61996, 2016-053N
Orbit
GEO
Country
Flag of UnknownUnknown / ITSO
Related business
Manufacturer
Boeing/ES
Mission
Spacecraft
Bus & Motor
Unknown
Mass
Unknown
Launch date (UTC)
2016-08-24 (9 years ago)
Launch vehicle
Unknown
Launch site
French Guiana (FRGUI)
Object type
Payload
Rocket body
Debris
Shape & HBR
Unknown shape, 1.1 m
Radar Cross Section
RCS unknown

Expand to show TLE details & history
Last TLE update: 1 day ago

TLE from 1 day ago
0 INTELSAT 33E DEB
1 61996U 16053N   25340.25319085  .00000139  00000-0  00000-0 0  9996
2 61996   0.9660  62.2520 0041507 322.8816 335.0817  1.00598278  4166
Epoch: 2025-12-06T06:04Z
TLE epoch observation values (Epoch: 2025-12-06T06:04:35.689Z)
Latitude
-0.84442°
Longitude
-166.42885°
Altitude
35,537.224 km
Speed
3.09 km/s
True Right ascension
00h 00m 00s
True Declination
0° 50' 37"
Sunlit
Object was in daylight at epoch
Visualization orbit readout
Latitude
Unknown
Longitude
Unknown
Altitude
Unknown
Speed
Unknown
Apparent Right ascension
Unknown
Apparent Declination
Unknown
Sunlit
N/A
Visualization observer readout
Local Sidereal Time
05:40:49
Azimuth
Unknown
Elevation
Unknown
Doppler factor
Unknown
Orbital elements
Apogee altitude
35,871.026 km
Perigee altitude
35,521.748 km
Semi-major axis
42,074.524 km
Eccentricity
0.00415
Inclination
0.966°
RAAN
62.252°
Arg. of periapsis
322.8816°
True anomaly
334.88036°
Mean anomaly
335.0817°
Eccentric anomaly
334.98112°
Mean motion
0.25149 °/min
Orbital period
1,431.49 mins
BSTAR
0
Loading maneuver chart data...
Computing Atmospheric mass density...
Loading historical data...
Loading historical data...
Loading historical data...
Loading historical data...
Loading historical data...
Loading historical data...
Loading historical data...

Documentation

Showing up to 5 results
|